Location: Bretagne
(43.8474°N, 0.4650°W)
Time: 13:39:12
(UTC+00:00)

Radarsat Rocket - Pass Details

Date: 22 April 2026
Orbit: 933 x 1491 km, 100.5° (Epoch: 12 May)

Event Time Altitude Azimuth Distance (km) Brightness Sun altitude
Rises 20:49:08 0° 221° (SW) 4,554 7.5 -18.9°
Reaches altitude 10° 20:53:38 10° 242° (WSW) 3,622 7.2 -19.5°
Maximum altitude 20:58:08 15° 274° (W) 3,251 7.4 -20.1°
Drops below altitude 10° 21:02:39 10° 307° (NW) 3,628 8.1 -20.7°
Sets 21:07:15 0° 329° (NNW) 4,567 8.9 -21.3°
